Date String (YYYY-MM-DD hh:mm:ss) UTC,Instrument flags,absolute air pressure of the measurement (hPa),sample flow rate (lpm),inlet stack bypass flow (lpm),air temperature of the measurement (°C),ambient temperature measured by the external sensor (°C),aerosol sample conditioner tube jacket temperature (°C),OPC LED temperature (°C),internal box temperature (°C),relative humidity of the measurement (%),span deviation,mass concentration of particles derived from Lorenz-Mie calculation of OPC scattering (μg/m³),mass concentration of particles derived from Lorenz-Mie calculation of OPC scattering (μg/m³),mass concentration of particles derived from Lorenz-Mie calculation of OPC scattering (μg/m³)
DateTimeUTC,F1_M11,P_M11,Q1_M11,Q2_M11,T1_M11,T2_M11,T3_M11,T4_M11,T5_M11,U1_M11,ZSPAN_M11,X2_M11,X0_M11,X1_M11
2023-10-04 12:00:00,SystemResetWarning,0832.4,4.99,000.00,029.3,028.0,000.0,037.7,030.9,15.3,0000.0,0002.94,0006.59,0002.33
2023-10-04 12:01:00,SystemResetWarning,0832.5,5.00,000.00,029.3,028.0,000.0,037.8,030.9,15.3,0000.0,0002.93,0006.48,0002.33
2023-10-04 12:02:00,SystemResetWarning,0832.5,4.99,000.00,029.3,028.0,000.0,037.8,030.9,15.3,0000.0,0002.92,0006.35,0002.34
2023-10-04 12:03:00,SystemResetWarning,0832.5,5.00,000.00,029.3,028.0,000.0,037.8,030.9,15.3,0000.0,0002.90,0006.19,0002.35
2023-10-04 12:04:00,SystemResetWarning,0832.5,5.00,000.00,029.3,028.0,000.0,037.8,030.9,15.3,0000.0,0002.89,0007.00,0002.33
2023-10-04 12:05:00,SystemResetWarning,0832.5,5.00,000.00,029.3,028.0,000.0,037.8,030.9,15.3,0000.0,0002.91,0008.04,0002.32
2023-10-04 12:06:00,SystemResetWarning,0832.5,5.01,000.00,029.3,028.0,000.0,037.8,030.9,15.3,0000.0,0002.88,0008.10,0002.30
2023-10-04 12:07:00,SystemResetWarning,0832.5,5.01,000.00,029.3,028.0,000.0,037.8,030.9,15.3,0000.0,0002.89,0008.13,0002.28
2023-10-04 12:08:00,SystemResetWarning,0832.5,5.00,000.00,029.3,028.0,000.0,037.8,030.9,15.3,0000.0,0002.91,0007.65,0002.28
2023-10-04 12:09:00,SystemResetWarning,0832.5,4.99,000.00,029.3,028.0,000.0,037.8,030.9,15.3,0000.0,0002.88,0007.73,0002.27
2023-10-04 12:10:00,SystemResetWarning,0832.5,5.00,000.00,029.3,028.0,000.0,037.8,031.0,15.3,0000.0,0002.91,0007.89,0002.28
2023-10-04 12:11:00,SystemResetWarning,0832.5,5.00,000.00,029.4,028.0,000.0,037.8,031.0,15.3,0000.0,0002.92,0007.92,0002.28
2023-10-04 12:12:00,SystemResetWarning,0832.6,5.00,000.00,029.4,028.0,000.0,037.8,031.0,15.2,0000.0,0002.94,0007.89,0002.29
2023-10-04 12:13:00,SystemResetWarning,0832.5,5.00,000.00,029.4,028.0,000.0,037.8,031.0,15.2,0000.0,0002.95,0007.93,0002.27
2023-10-04 12:14:00,SystemResetWarning,0832.6,5.00,000.00,029.4,028.0,000.0,037.8,031.0,15.2,0000.0,0002.92,0007.90,0002.27
2023-10-04 12:15:00,SystemResetWarning,0832.6,5.00,000.00,029.4,028.0,000.0,037.8,031.0,15.2,0000.0,0002.98,0007.70,0002.29
2023-10-04 12:16:00,SystemResetWarning,0832.6,5.00,000.00,029.4,028.1,000.0,037.8,031.0,15.2,0000.0,0002.96,0006.28,0002.29
2023-10-04 12:17:00,SystemResetWarning,0832.7,5.00,000.00,029.4,028.1,000.0,037.8,031.0,15.2,0000.0,0002.97,0006.59,0002.30
2023-10-04 12:18:00,SystemResetWarning,0832.7,5.00,000.00,029.4,028.1,000.0,037.8,031.0,15.4,0000.0,0003.03,0007.54,0002.30
2023-10-04 12:19:00,SystemResetWarning,0832.6,5.00,000.00,029.4,028.1,000.0,037.8,031.0,15.3,0000.0,0003.02,0007.40,0002.30
2023-10-04 12:20:00,SystemResetWarning,0832.7,5.01,000.00,029.4,028.1,000.0,037.9,031.0,15.3,0000.0,0003.02,0007.17,0002.29
2023-10-04 12:21:00,SystemResetWarning,0832.6,5.01,000.00,029.4,028.1,000.0,037.9,031.0,15.3,0000.0,0003.01,0007.61,0002.28
2023-10-04 12:22:00,SystemResetWarning,0832.7,5.00,000.00,029.4,028.1,000.0,037.9,031.0,15.2,0000.0,0003.03,0007.57,0002.28
2023-10-04 12:23:00,SystemResetWarning,0832.6,5.00,000.00,029.4,028.1,000.0,037.8,031.0,15.2,0000.0,0003.02,0007.59,0002.27
2023-10-04 12:24:00,SystemResetWarning,0832.7,5.00,000.00,029.4,028.1,000.0,037.8,031.0,15.4,0000.0,0002.99,0007.55,0002.26
2023-10-04 12:25:00,SystemResetWarning,0832.7,4.99,000.00,029.4,028.1,000.0,037.9,031.0,15.4,0000.0,0003.01,0007.61,0002.25
2023-10-04 12:26:00,SystemResetWarning,0832.7,5.00,000.00,029.4,028.1,000.0,037.9,031.0,15.4,0000.0,0002.98,0007.58,0002.22
2023-10-04 12:27:00,SystemResetWarning,0832.7,5.00,000.00,029.4,028.1,000.0,037.9,031.0,15.3,0000.0,0002.97,0007.53,0002.20
2023-10-04 12:28:00,SystemResetWarning,0832.7,5.00,000.00,029.4,028.1,000.0,037.9,031.0,15.3,0000.0,0002.99,0007.51,0002.17
2023-10-04 12:29:00,SystemResetWarning,0832.7,5.00,000.00,029.4,028.1,000.0,037.9,031.0,15.2,0000.0,0002.93,0006.97,0002.17
2023-10-04 12:30:00,SystemResetWarning,0832.7,5.00,000.00,029.5,028.1,000.0,037.9,031.1,15.2,0000.0,0002.93,0007.01,0002.16
2023-10-04 12:31:00,SystemResetWarning,0832.7,5.00,000.00,029.5,028.1,000.0,037.9,031.0,15.2,0000.0,0002.90,0006.95,0002.14
2023-10-04 12:32:00,SystemResetWarning,0832.7,5.00,000.00,029.5,028.1,000.0,037.9,031.0,15.2,0000.0,0002.88,0005.84,0002.14
2023-10-04 12:33:00,SystemResetWarning,0832.7,5.00,000.00,029.5,028.1,000.0,037.9,031.0,15.2,0000.0,0002.86,0005.46,0002.14
2023-10-04 12:34:00,SystemResetWarning,0832.7,5.01,000.00,029.5,028.1,000.0,037.9,031.0,15.2,0000.0,0002.87,0006.50,0002.15
2023-10-04 12:35:00,SystemResetWarning,0832.7,5.00,000.00,029.4,028.0,000.0,037.9,030.9,15.2,0000.0,0002.86,0007.97,0002.14
2023-10-04 12:36:00,SystemResetWarning,0832.6,5.00,000.00,029.4,028.0,000.0,037.9,030.9,15.2,0000.0,0002.86,0008.43,0002.14
2023-10-04 12:37:00,SystemResetWarning,0832.6,4.99,000.00,029.4,027.9,000.0,037.8,030.9,15.3,0000.0,0002.90,0008.50,0002.15
2023-10-04 12:38:00,SystemResetWarning,0832.6,4.99,000.00,029.3,027.8,000.0,037.8,030.8,15.3,0000.0,0002.97,0008.65,0002.17
2023-10-04 12:39:00,SystemResetWarning,0832.6,5.00,000.00,029.3,027.8,000.0,037.8,030.8,15.3,0000.0,0002.99,0008.65,0002.20
2023-10-04 12:40:00,SystemResetWarning,0832.6,5.00,000.00,029.3,027.7,000.0,037.8,030.8,15.3,0000.0,0002.99,0008.52,0002.22
2023-10-04 12:41:00,SystemResetWarning,0832.6,5.01,000.00,029.3,027.7,000.0,037.8,030.7,15.3,0000.0,0002.97,0008.52,0002.21
2023-10-04 12:42:00,SystemResetWarning,0832.6,5.00,000.00,029.2,027.6,000.0,037.8,030.7,15.4,0000.0,0002.99,0008.53,0002.24
2023-10-04 12:43:00,SystemResetWarning,0832.6,5.00,000.00,029.2,027.6,000.0,037.8,030.7,15.5,0000.0,0003.00,0008.55,0002.24
2023-10-04 12:44:00,SystemResetWarning,0832.6,5.00,000.00,029.2,027.6,000.0,037.8,030.7,15.6,0000.0,0003.01,0009.26,0002.23
2023-10-04 12:45:00,SystemResetWarning,0832.6,5.00,000.00,029.1,027.5,000.0,037.8,030.6,15.6,0000.0,0002.98,0009.02,0002.24
2023-10-04 12:46:00,SystemResetWarning,0832.6,5.00,000.00,029.1,027.5,000.0,037.7,030.6,15.6,0000.0,0002.94,0008.03,0002.24
2023-10-04 12:47:00,SystemResetWarning,0832.6,5.00,000.00,029.1,027.5,000.0,037.7,030.6,15.6,0000.0,0002.97,0007.26,0002.25
2023-10-04 12:48:00,SystemResetWarning,0832.6,5.00,000.00,029.1,027.5,000.0,037.7,030.6,15.5,0000.0,0002.97,0007.35,0002.24
2023-10-04 12:49:00,SystemResetWarning,0832.6,5.00,000.00,029.1,027.4,000.0,037.7,030.6,15.5,0000.0,0002.92,0007.40,0002.24
2023-10-04 12:50:00,SystemResetWarning,0832.7,5.00,000.00,029.0,027.4,000.0,037.7,030.5,15.5,0000.0,0002.88,0007.47,0002.20
2023-10-04 12:51:00,SystemResetWarning,0832.6,5.00,000.00,029.0,027.4,000.0,037.6,030.5,15.5,0000.0,0002.88,0007.23,0002.19
2023-10-04 12:52:00,SystemResetWarning,0832.6,5.00,000.00,029.0,027.4,000.0,037.6,030.5,15.5,0000.0,0002.90,0007.29,0002.20
2023-10-04 12:53:00,SystemResetWarning,0832.7,5.00,000.00,029.0,027.4,000.0,037.6,030.5,15.5,0000.0,0002.90,0007.50,0002.19
2023-10-04 12:54:00,SystemResetWarning,0832.6,5.00,000.00,029.0,027.4,000.0,037.6,030.5,15.6,0000.0,0002.89,0007.54,0002.18
2023-10-04 12:55:00,SystemResetWarning,0832.6,5.00,000.00,028.9,027.4,000.0,037.6,030.5,15.6,0000.0,0002.89,0006.51,0002.16
2023-10-04 12:56:00,SystemResetWarning,0832.7,4.99,000.00,028.9,027.4,000.0,037.5,030.5,15.6,0000.0,0002.89,0006.37,0002.15
2023-10-04 12:57:00,SystemResetWarning,0832.7,4.99,000.00,028.9,027.4,000.0,037.5,030.5,15.6,0000.0,0002.90,0006.44,0002.12
2023-10-04 12:58:00,SystemResetWarning,0832.7,5.00,000.00,028.9,027.4,000.0,037.5,030.5,15.6,0000.0,0002.85,0006.18,0002.10
2023-10-04 12:59:00,SystemResetWarning,0832.7,5.00,000.00,028.9,027.4,000.0,037.5,030.5,15.5,0000.0,0002.79,0005.93,0002.08
